FW6987 Weather Reports


time (UTC)temp
F
wind
direction
speed
knots
gust
knots
rain 1hr
in
rain 24hr
in
rain mn
in
humidity
%
barometer
mb
20260902214607 65 0 0.0 0.0 0.00 0.28 0.28 97 1010.7
20260902213100 65 0 0.0 0.0 0.00 0.28 0.28 97 1010.6
20260902211555 65 0 0.0 0.0 0.00 0.28 0.28 97 1010.6
20260902210056 65 0 0.0 0.0 0.00 0.28 0.28 97 1010.4
20260902204600 65 0 0.0 0.0 0.00 0.28 0.28 97 1010.5
20260902203100 65 0 0.0 0.0 0.00 0.28 0.28 97 1010.6
20260902201604 65 0 0.0 0.0 0.00 0.28 0.28 97 1010.3
20260902200058 64 0 0.0 0.0 0.00 0.28 0.28 97 1010.4
20260902194557 64 0 0.0 0.0 0.00 0.28 0.28 97 1010.6
20260902193054 64 0 0.0 0.0 0.00 0.28 0.28 97 1010.8
20260902191559 64 0 0.0 0.0 0.01 0.28 0.28 97 1010.9
20260902190058 63 0 0.0 0.0 0.04 0.28 0.28 97 1011.1
20260902184556 63 0 0.0 0.0 0.08 0.28 0.28 97 1011.3
20260902183107 62 0 0.0 0.0 0.11 0.28 0.28 97 1011.4
20260902181600 62 0 0.0 0.0 0.21 0.27 0.27 97 1011.5
20260902180058 62 0 0.0 0.0 0.20 0.24 0.24 96 1011.6
20260902174602 62 0 0.0 0.0 0.16 0.20 0.20 96 1012.2
20260902173126 62 0 0.0 0.0 0.13 0.17 0.17 96 1012.2
20260902171609 62 0 0.0 3.5 0.01 0.05 0.05 96 1012.4
20260902164601 62 0 0.0 0.0 0.00 0.04 0.04 96 1011.8
20260902163107 62 0 0.0 0.0 0.00 0.04 0.04 96 1012.1
20260902161557 62 0 0.0 1.7 0.00 0.04 0.04 96 1012.3
20260902160105 62 0 0.0 0.0 0.00 0.04 0.04 97 1012.1
20260902154554 62 0 0.0 0.0 0.00 0.04 0.04 97 1011.8
20260902153057 62 0 0.0 0.9 0.00 0.04 0.04 97 1011.7
20260902151601 62 0 0.0 0.0 0.00 0.04 0.04 96 1011.8
20260902150054 62 0 0.0 0.0 0.01 0.04 0.04 96 1011.9
20260902144555 62 0 0.0 0.9 0.01 0.05 0.04 96 1012.1
20260902143103 62 0 0.0 0.0 0.01 0.05 0.04 96 1012.4
20260902141609 62 0 0.0 0.0 0.01 0.05 0.04 96 1012.5
20260902140052 62 0 0.0 0.0 0.00 0.04 0.03 96 1011.9
20260902134600 62 0 0.0 0.9 0.00 0.15 0.03 96 1012.1
20260902133101 62 0 0.0 0.9 0.00 0.15 0.03 96 1012.3
20260902131600 62 0 0.0 0.9 0.00 0.15 0.03 96 1012.0
20260902124611 62 0 0.0 0.9 0.00 0.27 0.03 96 1011.6
20260902123141 62 312 0.0 0.0 0.00 0.27 0.03 96 1011.4
20260902121602 62 0 0.0 0.9 0.00 0.27 0.03 96 1011.2
20260902120056 62 0 0.0 1.7 0.01 0.27 0.03 96 1011.3
20260902114559 62 0 0.0 0.9 0.01 0.28 0.03 96 1011.3
20260902113058 62 0 0.0 0.0 0.01 0.28 0.03 96 1011.4
20260902111601 62 0 0.0 0.9 0.02 0.28 0.03 96 1011.5
20260902110110 62 0 0.0 0.9 0.01 0.27 0.02 96 1011.5
20260902104557 62 0 0.0 0.0 0.01 0.28 0.02 96 1011.4
20260902103102 62 0 0.0 0.9 0.01 0.28 0.02 96 1011.4
20260902101558 62 0 0.0 0.9 0.00 0.27 0.01 96 1011.4
20260902100100 62 0 0.0 0.0 0.00 0.27 0.01 95 1011.0
20260902094600 62 0 0.0 0.0 0.00 0.27 0.01 95 1010.9
20260902093108 62 0 0.0 0.9 0.00 0.27 0.01 95 1010.8
20260902091615 62 0 0.0 1.7 0.00 0.27 0.01 95 1010.6
20260902090109 62 0 0.0 0.0 0.00 0.27 0.01 95 1010.4
20260902084604 62 0 0.0 1.7 0.00 0.27 0.01 95 1010.3
20260902083059 62 0 0.0 0.9 0.00 0.27 0.01 95 1010.3
20260902081555 62 0 0.0 0.0 0.01 0.27 0.01 95 1010.2
20260902074831 62 0 0.0 0.0 0.01 0.27 0.01 95 1010.2
20260902073057 62 0 0.0 0.0 0.01 0.27 0.01 95 1010.1
20260902071554 62 0 0.0 0.9 0.00 0.26 0.00 95 1010.1
20260902070100 63 0 0.0 0.9 0.00 0.26 0.00 95 1010.4
20260902064600 63 312 0.0 0.0 0.00 0.27 0.00 95 1010.2
20260902063105 63 0 0.0 0.0 0.00 0.27 0.00 95 1010.1
20260902061618 63 0 0.0 0.0 0.00 0.27 0.00 95 1010.4
20260902060115 63 0 0.0 0.0 0.00 0.27 0.00 95 1010.1
20260902054600 63 0 0.0 0.0 0.00 0.29 0.00 95 1010.3
20260902053101 63 0 0.0 0.0 0.00 0.29 0.00 94 1010.0
20260902051613 64 0 0.0 0.0 0.00 0.29 0.00 95 1010.0
20260902050101 64 0 0.0 0.0 0.00 0.29 0.00 94 1010.1
20260902044610 64 0 0.0 0.0 0.00 0.52 0.00 94 1009.9
20260902043102 64 0 0.0 0.0 0.00 0.52 0.00 94 1009.7
20260902041601 65 0 0.0 0.0 0.00 0.52 0.00 94 1009.5
20260902040106 65 0 0.0 0.0 0.00 0.52 0.00 94 1009.5
20260902034600 65 0 0.0 1.7 0.00 0.52 0.52 94 1009.3
20260902033057 65 0 0.0 0.9 0.00 0.52 0.52 94 1009.1
20260902031604 66 0 0.0 1.7 0.00 0.52 0.52 94 1008.6
20260902030055 66 0 0.0 0.0 0.00 0.52 0.52 95 1008.4
20260902024600 66 0 0.0 0.0 0.00 0.52 0.52 94 1008.6
20260902023053 67 0 0.0 1.7 0.00 0.52 0.52 95 1008.3
20260902021630 67 0 0.0 0.9 0.00 0.52 0.52 95 1008.2
20260902020058 67 0 0.0 1.7 0.00 0.52 0.52 95 1008.4
20260902014559 68 0 0.0 0.9 0.00 0.52 0.52 95 1008.3
20260902013100 68 299 0.0 1.7 0.00 0.52 0.52 95 1008.2
20260902011603 68 0 0.0 0.9 0.00 0.52 0.52 95 1008.1
20260902010058 68 0 0.0 2.6 0.00 0.52 0.52 95 1007.9
20260902004559 69 0 0.0 0.9 0.00 0.52 0.52 95 1007.7
20260902003104 69 0 0.0 3.5 0.00 0.52 0.52 95 1007.1
20260902001600 69 0 0.0 2.6 0.00 0.52 0.52 95 1007.0
20260902000100 70 0 0.0 3.5 0.00 0.52 0.52 95 1006.8
20260901234557 70 303 0.9 5.2 0.00 0.52 0.52 95 1006.6
20260901233111 70 0 0.0 3.5 0.00 0.52 0.52 95 1006.6
20260901231556 70 354 1.7 6.1 0.00 0.52 0.52 95 1006.7
20260901230058 70 292 1.7 6.1 0.00 0.52 0.52 95 1006.8
20260901224559 70 339 2.6 6.1 0.00 0.52 0.52 94 1006.6
20260901223108 70 308 3.5 9.6 0.00 0.52 0.52 94 1006.0
20260901221600 71 311 3.5 7.8 0.00 0.52 0.52 94 1005.9